TimeEST,TemperatureF,Dew PointF,Humidity,Sea Level PressureIn,VisibilityMPH,Wind Direction,Wind SpeedMPH,Gust SpeedMPH,PrecipitationIn,Events,Conditions,WindDirDegrees,DateUTC
12:56 AM,32.0,19.9,61,30.19,10.0,WNW,13.8,-,N/A,,Scattered Clouds,290,2013-01-24 05:56:00
1:56 AM,30.9,18.0,59,30.23,10.0,NNW,16.1,24.2,N/A,,Scattered Clouds,330,2013-01-24 06:56:00
2:56 AM,28.0,15.1,58,30.28,10.0,NW,18.4,26.5,N/A,,Scattered Clouds,320,2013-01-24 07:56:00
3:56 AM,26.1,10.9,53,30.32,10.0,North,19.6,25.3,N/A,,Mostly Cloudy,350,2013-01-24 08:56:00
4:56 AM,25.0,10.0,53,30.37,10.0,North,19.6,25.3,N/A,,Overcast,360,2013-01-24 09:56:00
5:56 AM,23.0,7.0,50,30.41,10.0,North,16.1,-,N/A,,Clear,10,2013-01-24 10:56:00
6:56 AM,21.9,8.1,55,30.46,10.0,North,16.1,-,N/A,,Partly Cloudy,360,2013-01-24 11:56:00
7:56 AM,21.0,9.0,60,30.51,10.0,North,10.4,-,N/A,,Mostly Cloudy,10,2013-01-24 12:56:00
8:56 AM,21.0,10.0,63,30.52,10.0,North,10.4,-,N/A,,Mostly Cloudy,10,2013-01-24 13:56:00
9:56 AM,23.0,7.0,50,30.56,10.0,North,13.8,-,N/A,,Mostly Cloudy,10,2013-01-24 14:56:00
10:56 AM,26.1,1.9,35,30.60,10.0,North,12.7,-,N/A,,Partly Cloudy,360,2013-01-24 15:56:00
11:56 AM,27.0,-2.0,29,30.60,10.0,North,8.1,-,N/A,,Mostly Cloudy,360,2013-01-24 16:56:00
12:56 PM,28.0,-5.1,24,30.56,10.0,East,11.5,17.3,N/A,,Overcast,80,2013-01-24 17:56:00
1:56 PM,28.9,-6.0,22,30.55,10.0,ENE,9.2,18.4,N/A,,Overcast,60,2013-01-24 18:56:00
2:56 PM,28.0,-5.1,24,30.52,10.0,NE,8.1,-,N/A,,Overcast,50,2013-01-24 19:56:00
3:56 PM,28.9,-5.1,23,30.53,10.0,East,8.1,-,N/A,,Overcast,80,2013-01-24 20:56:00
4:56 PM,28.0,-2.9,26,30.52,10.0,NE,9.2,-,N/A,,Overcast,50,2013-01-24 21:56:00
5:56 PM,26.1,-2.9,28,30.51,10.0,East,6.9,-,N/A,,Mostly Cloudy,90,2013-01-24 22:56:00
6:56 PM,26.1,-2.9,28,30.51,10.0,East,6.9,-,N/A,,Mostly Cloudy,80,2013-01-24 23:56:00
7:56 PM,26.1,-0.9,31,30.51,10.0,East,4.6,-,N/A,,Mostly Cloudy,100,2013-01-25 00:56:00
8:56 PM,25.0,-0.0,34,30.49,10.0,ESE,6.9,-,N/A,,Mostly Cloudy,110,2013-01-25 01:56:00
9:56 PM,25.0,1.0,36,30.46,10.0,ESE,11.5,-,N/A,,Mostly Cloudy,110,2013-01-25 02:56:00
10:56 PM,24.1,1.0,37,30.44,10.0,East,9.2,-,N/A,,Mostly Cloudy,90,2013-01-25 03:56:00
11:56 PM,24.1,1.9,38,30.43,10.0,ESE,8.1,-,N/A,,Mostly Cloudy,110,2013-01-25 04:56:00